sat.trackr.live / text

‹ back to catalog

STARLINK-5824

NORAD 57067 · 2023-088V

PAYLOAD ACTIVE UNKNOWN

§ Identity

Operator
Country
US
Launch date
2023-06-22
Launch site
AFWTR
Launch vehicle
Mass (kg)
RCS (m²)

Purposes: comms

External: N2YO · Heavens-Above · Gunter

§ Orbital elements

Epoch: 2026-05-25T00:15:28.927008Z

Period
94.27 min
Inclination
43.0046°
Eccentricity
0.0001135
Mean motion
15.27574451 rev/d
Perigee alt
482.3 km
Apogee alt
483.8 km
Semi-major
6,861.2 km
B*
-7.8264e-7
RAAN
39.7173°
Arg perigee
269.7768°
Mean anomaly
90.2954°
Rev number
16,200

§ Raw data

STARLINK-58241 57067U 23088V   26145.01075147 -.00000284  00000+0 -78264-6 0  99972 57067  43.0046  39.7173 0001135 269.7768  90.2954 15.27574451162008

JSON: /api/v1/satellites/57067 · /tle

For live sub-satellite position, see the globe view (requires WebGL).

§ Visibility from observer

Set your observer location to see the next 7 days of passes ≥ 10°. The values pass through the URL so the page stays shareable.

No JS? Fill the form by hand. The geolocation button needs JavaScript.